FW6650 Weather Reports


time (UTC)temp
C
wind
direction
speed
KPH
gust
KPH
rain 1hr
cm
rain 24hr
cm
rain mn
cm
humidity
%
barometer
mb
20260504110527 16 332 11.3 29.0 0.00 0.00 0.00 37 1017.7
20260504100526 16 360 8.0 25.7 0.00 0.00 0.00 39 1018.0
20260504081535 14 313 6.4 16.1 0.00 0.00 0.00 47 1018.1
20260504081028 13 304 8.0 16.1 0.00 0.00 0.00 49 1018.0
20260504080528 13 318 8.0 19.3 0.00 0.00 0.00 49 1018.1
20260504050530 10 0 3.2 4.8 0.00 0.00 0.00 66 1017.4
20260504045528 10 0 0.0 1.6 0.00 0.13 0.00 69 1017.4
20260504045027 10 0 0.0 4.8 0.00 0.13 0.00 70 1017.3
20260504044557 9 0 0.0 4.8 0.00 0.13 0.00 71 1017.3
20260504044028 9 0 1.6 4.8 0.00 0.13 0.00 71 1017.2
20260504043528 9 0 1.6 6.4 0.00 0.13 0.00 69 1017.2
20260504043040 8 191 1.6 6.4 0.00 0.13 0.00 71 1017.2
20260504042527 8 196 3.2 6.4 0.00 0.13 0.00 72 1017.2
20260504042027 8 225 1.6 4.8 0.00 0.13 0.00 72 1017.1
20260504041535 8 238 0.0 6.4 0.00 0.13 0.00 72 1017.1
20260504041027 8 238 1.6 8.0 0.00 0.13 0.00 73 1017.1
20260504040530 8 239 3.2 8.0 0.00 0.13 0.00 72 1017.1
20260504040040 8 239 0.0 1.6 0.00 0.13 0.00 72 1017.0
20260504035528 8 0 0.0 0.0 0.00 0.13 0.00 70 1016.8
20260504035029 8 0 0.0 0.0 0.00 0.13 0.00 71 1016.8
20260504034551 8 0 0.0 1.6 0.00 0.13 0.00 72 1016.8
20260504034027 8 0 0.0 4.8 0.00 0.13 0.00 73 1016.8
20260504033527 8 0 1.6 4.8 0.00 0.13 0.00 73 1016.8
20260504033052 8 72 1.6 4.8 0.00 0.13 0.00 71 1016.8
20260504032527 8 0 0.0 0.0 0.00 0.13 0.00 70 1016.8
20260504032029 8 0 0.0 4.8 0.00 0.13 0.00 69 1016.9
20260504031541 8 0 0.0 6.4 0.00 0.13 0.00 69 1016.8
20260504031027 8 71 3.2 9.7 0.00 0.13 0.00 69 1016.8
20260504030527 8 73 3.2 9.7 0.00 0.13 0.00 69 1016.8
20260504030038 8 83 4.8 9.7 0.00 0.13 0.00 69 1016.7
20260504025527 8 146 0.0 6.4 0.00 0.13 0.00 69 1016.8
20260504025029 8 0 0.0 0.0 0.00 0.13 0.00 70 1016.6
20260504024544 8 0 0.0 3.2 0.00 0.13 0.00 70 1016.6
20260504024027 8 0 0.0 8.0 0.00 0.13 0.00 70 1016.8
20260504023525 8 0 1.6 8.0 0.00 0.13 0.00 70 1016.8
20260504023037 8 151 4.8 8.0 0.00 0.13 0.00 70 1016.8
20260504022525 8 0 0.0 3.2 0.00 0.13 0.00 70 1016.8
20260504022022 8 0 0.0 8.0 0.00 0.13 0.00 70 1016.8
20260504021540 8 165 0.0 8.0 0.00 0.13 0.00 70 1016.8
20260504021022 8 167 3.2 8.0 0.00 0.13 0.00 69 1016.7
20260504020522 8 167 0.0 8.0 0.00 0.13 0.00 68 1016.9
20260504020036 8 167 4.8 8.0 0.00 0.13 0.00 68 1016.9
20260504015526 8 172 3.2 8.0 0.00 0.13 0.00 69 1016.9
20260504015025 8 107 1.6 4.8 0.00 0.13 0.00 68 1016.9
20260504014539 8 0 0.0 4.8 0.00 0.13 0.00 67 1017.0
20260504014022 8 44 1.6 6.4 0.00 0.13 0.00 67 1017.0
20260504013525 8 0 0.0 6.4 0.00 0.13 0.00 65 1016.8
20260504013042 8 42 3.2 8.0 0.00 0.13 0.00 67 1016.9
20260504012525 8 0 0.0 8.0 0.00 0.13 0.00 67 1016.8
20260504012027 8 49 1.6 4.8 0.00 0.13 0.00 67 1016.9
20260504011537 8 0 0.0 0.0 0.00 0.13 0.00 67 1017.0
20260504011021 8 0 0.0 9.7 0.00 0.13 0.00 67 1016.9
20260504010525 8 0 1.6 9.7 0.00 0.13 0.00 67 1016.9
20260504010052 8 168 3.2 8.0 0.00 0.13 0.00 66 1016.8
20260504005522 8 155 1.6 6.4 0.00 0.13 0.00 65 1016.9
20260504005022 8 0 1.6 4.8 0.00 0.13 0.00 66 1017.0
20260504004536 8 155 3.2 4.8 0.00 0.13 0.00 65 1016.9
20260504004021 8 0 1.6 8.0 0.00 0.13 0.00 65 1016.9
20260504003521 8 155 3.2 11.3 0.00 0.13 0.00 65 1016.9
20260504003035 8 159 1.6 11.3 0.00 0.13 0.00 65 1016.9
20260504002525 8 161 8.0 11.3 0.00 0.13 0.00 65 1016.8
20260504002025 8 159 8.0 9.7 0.00 0.13 0.00 66 1016.8
20260504001541 8 169 4.8 9.7 0.00 0.13 0.00 66 1016.8
20260504001025 8 167 4.8 11.3 0.00 0.13 0.00 66 1016.9
20260504000525 8 188 4.8 11.3 0.00 0.13 0.00 66 1016.9
20260504000044 8 157 8.0 11.3 0.00 0.13 0.00 66 1016.9
20260503235522 8 163 6.4 9.7 0.00 0.13 0.00 66 1017.1
20260503235022 8 163 4.8 8.0 0.00 0.13 0.00 67 1016.9
20260503234539 8 169 4.8 11.3 0.00 0.13 0.00 67 1016.8
20260503234023 8 180 4.8 11.3 0.00 0.13 0.00 67 1016.9
20260503233525 8 165 4.8 9.7 0.00 0.13 0.00 67 1016.8
20260503233108 8 159 4.8 8.0 0.00 0.13 0.00 67 1017.0
20260503232526 8 171 3.2 6.4 0.00 0.13 0.00 67 1017.0
20260503232027 8 182 1.6 6.4 0.00 0.13 0.00 68 1016.9
20260503231538 8 169 3.2 6.4 0.00 0.13 0.00 67 1016.9
20260503231027 8 270 1.6 4.8 0.00 0.13 0.00 67 1016.9
20260503230527 8 281 0.0 1.6 0.00 0.13 0.00 66 1016.8
20260503230044 9 0 0.0 3.2 0.00 0.13 0.00 64 1016.9
20260503225527 9 0 0.0 3.2 0.00 0.13 0.00 63 1017.0
20260503225027 9 0 0.0 6.4 0.00 0.13 0.00 63 1017.0
20260503224542 9 0 1.6 6.4 0.00 0.13 0.00 63 1017.0
20260503224027 9 0 1.6 6.4 0.00 0.13 0.00 62 1017.0
20260503223527 9 292 3.2 6.4 0.00 0.13 0.00 62 1017.1
20260503223040 10 263 1.6 11.3 0.00 0.13 0.00 62 1017.0
20260503222526 10 271 1.6 11.3 0.00 0.13 0.00 62 1017.0
20260503222027 10 284 3.2 11.3 0.00 0.13 0.00 62 1017.1
20260503221541 10 257 4.8 11.3 0.00 0.13 0.00 62 1017.1
20260503221026 10 270 4.8 11.3 0.00 0.13 0.00 62 1017.1
20260503220528 10 280 4.8 11.3 0.00 0.13 0.00 62 1017.1
20260503220103 10 257 0.0 9.7 0.00 0.13 0.00 62 1017.2
20260503215526 10 257 1.6 9.7 0.00 0.15 0.00 62 1017.1
20260503215026 10 284 3.2 9.7 0.00 0.15 0.00 62 1017.2
20260503214545 10 260 1.6 9.7 0.00 0.15 0.00 62 1017.1
20260503214027 10 0 0.0 11.3 0.00 0.15 0.00 62 1017.2
20260503213529 10 257 3.2 11.3 0.00 0.15 0.00 62 1017.1
20260503213039 10 252 4.8 11.3 0.00 0.15 0.00 62 1017.1
20260503212529 10 251 3.2 8.0 0.00 0.15 0.00 62 1017.1
20260503212027 10 223 1.6 11.3 0.00 0.15 0.00 62 1017.1
20260503211545 10 242 3.2 11.3 0.00 0.15 0.00 62 1017.0
20260503211026 10 244 1.6 8.0 0.00 0.15 0.00 62 1017.1
20260503210527 10 239 3.2 8.0 0.00 0.15 0.00 61 1017.1
20260503210037 10 242 3.2 11.3 0.00 0.15 0.00 61 1017.1
20260503205527 10 250 6.4 12.9 0.00 0.15 0.15 61 1017.1
20260503205029 10 246 3.2 12.9 0.00 0.15 0.15 61 1017.2
20260503204547 10 238 3.2 14.5 0.00 0.15 0.15 61 1017.2
20260503204027 10 269 4.8 14.5 0.00 0.15 0.15 60 1017.2
20260503203526 10 264 8.0 14.5 0.00 0.15 0.15 60 1017.2
20260503203038 10 257 4.8 12.9 0.00 0.15 0.15 60 1017.3
20260503202527 10 233 3.2 14.5 0.00 0.15 0.15 60 1017.2
20260503202027 10 252 4.8 14.5 0.00 0.15 0.15 60 1017.3
20260503201558 10 269 4.8 16.1 0.00 0.15 0.15 60 1017.2
20260503201028 10 271 8.0 16.1 0.00 0.15 0.15 60 1017.3
20260503200526 10 288 6.4 16.1 0.00 0.15 0.15 60 1017.2
20260503200037 10 286 4.8 12.9 0.00 0.15 0.15 60 1017.2
20260503195528 10 282 1.6 12.9 0.00 0.15 0.15 60 1017.2
20260503195026 10 268 3.2 12.9 0.00 0.15 0.15 60 1017.2
20260503194537 10 286 4.8 12.9 0.00 0.15 0.15 59 1017.2
20260503194027 10 287 3.2 11.3 0.00 0.15 0.15 59 1017.2
20260503193530 10 0 1.6 11.3 0.00 0.15 0.15 59 1017.1
20260503193049 10 0 4.8 11.3 0.00 0.15 0.15 60 1017.1
20260503192526 10 269 1.6 9.7 0.00 0.15 0.15 60 1017.0
20260503192027 10 292 3.2 16.1 0.00 0.15 0.15 59 1017.0
20260503191539 10 273 8.0 17.7 0.00 0.15 0.15 60 1017.0
20260503191027 10 297 6.4 17.7 0.00 0.15 0.15 60 1017.0
20260503190527 10 312 9.7 17.7 0.00 0.15 0.15 59 1017.0
20260503190037 10 290 8.0 19.3 0.00 0.15 0.15 59 1016.9
20260503185526 10 277 9.7 19.3 0.00 0.15 0.15 58 1016.7
20260503185026 10 307 1.6 11.3 0.00 0.15 0.15 59 1016.8
20260503184538 10 284 1.6 8.0 0.00 0.15 0.15 59 1016.7
20260503184027 10 340 0.0 6.4 0.00 0.15 0.15 59 1016.7
20260503183528 10 0 1.6 11.3 0.00 0.15 0.15 59 1016.6
20260503183040 11 317 3.2 11.3 0.00 0.15 0.15 58 1016.5
20260503182526 10 315 3.2 9.7 0.00 0.15 0.15 59 1016.4
20260503182027 10 312 1.6 11.3 0.00 0.15 0.15 59 1016.3
20260503181611 10 309 3.2 17.7 0.00 0.15 0.15 59 1016.3
20260503181028 10 360 8.0 17.7 0.00 0.15 0.15 59 1016.2
20260503180530 10 355 4.8 17.7 0.00 0.15 0.15 60 1016.2
20260503180041 10 317 9.7 19.3 0.00 0.15 0.15 60 1016.2
20260503175526 10 301 9.7 19.3 0.00 0.15 0.15 60 1016.1
20260503175026 10 332 6.4 22.5 0.00 0.15 0.15 60 1016.1
20260503174537 11 342 8.0 22.5 0.00 0.15 0.15 60 1016.1
20260503174026 11 296 11.3 22.5 0.00 0.15 0.15 59 1016.0
20260503173526 11 314 12.9 22.5 0.00 0.15 0.15 59 1015.9
20260503173053 11 331 9.7 20.9 0.00 0.15 0.15 59 1015.9
20260503172526 11 321 9.7 20.9 0.00 0.15 0.15 59 1015.8
20260503172027 11 313 6.4 19.3 0.00 0.15 0.15 60 1015.8
20260503171539 11 320 9.7 19.3 0.00 0.15 0.15 60 1015.8
20260503171027 11 317 9.7 19.3 0.00 0.15 0.15 59 1015.7
20260503170527 11 333 11.3 29.0 0.00 0.15 0.15 59 1015.6
20260503150526 12 5 19.3 37.0 0.00 0.15 0.15 48 1014.7
20260503131027 11 355 19.3 32.2 0.00 0.15 0.15 56 1015.0
20260503130526 12 317 9.7 27.4 0.00 0.15 0.15 55 1014.9